Location: Little Eden Observatory
(34.6167°N, 93.7833°W)
Time: 07:27:37
(UTC-06:00)

N. Korean satellite - Pass Details

Date: 18 March 2018
Orbit: 457 x 511 km, 97.2° (Epoch: 15 November)

Event Time Altitude Azimuth Distance (km) Brightness Sun altitude
Rises 19:45:34 0° 191° (SSW) 2,542 10.3 -5.0°
Reaches altitude 10° 19:47:49 10° 204° (SSW) 1,677 9.6 -5.5°
Maximum altitude 19:50:56 27° 264° (W) 984 9.2 -6.1°
Drops below altitude 10° 19:54:07 10° 323° (NW) 1,716 10.0 -6.7°
Sets 19:56:27 0° 336° (NNW) 2,614 10.7 -7.2°
